AZU2869 SBGO-SBKP

Flight info

Callsign AZU2869
Flight time 1h 9m
Altitude 34000
Route ESBOD DCT ISISA DCT UTLOT
Aircraft A20N/M-SDE2E3FGHIRWXY/LB1

Departure

Time 2026-04-21 15:28
Airport Santa Genoveva International Airport (SBGO)

Arrival

Time 2026-04-21 16:38
Airport Viracopos International Airport (SBKP)
Time Latitude Longitude Altitude Speed Heading
2026-04-21 15:04 -16.63067 -49.21444 2470 ft 0 kts 41°
2026-04-21 15:19 -16.63073 -49.21450 2470 ft 2 kts 41°
2026-04-21 15:19 -16.63084 -49.21460 2470 ft 2 kts 41°
2026-04-21 15:19 -16.63092 -49.21467 2470 ft 0 kts 42°
2026-04-21 15:20 -16.63103 -49.21476 2470 ft 2 kts 17°
2026-04-21 15:20 -16.63118 -49.21478 2470 ft 2 kts 353°
2026-04-21 15:20 -16.63132 -49.21473 2470 ft 2 kts 328°
2026-04-21 15:20 -16.63142 -49.21464 2470 ft 0 kts 306°
2026-04-21 15:21 -16.63145 -49.21458 2470 ft 1 kts 301°
2026-04-21 15:21 -16.63146 -49.21457 2470 ft 0 kts 302°
2026-04-21 15:23 -16.63138 -49.21470 2470 ft 5 kts 305°
2026-04-21 15:23 -16.63098 -49.21521 2470 ft 12 kts 316°
2026-04-21 15:23 -16.63021 -49.21583 2470 ft 14 kts 328°
2026-04-21 15:23 -16.62938 -49.21624 2470 ft 8 kts 336°
2026-04-21 15:24 -16.62925 -49.21674 2470 ft 8 kts 263°
2026-04-21 15:24 -16.62933 -49.21742 2470 ft 11 kts 260°
2026-04-21 15:24 -16.62952 -49.21832 2470 ft 14 kts 258°
2026-04-21 15:24 -16.62974 -49.21946 2470 ft 15 kts 258°
2026-04-21 15:25 -16.62994 -49.22060 2470 ft 16 kts 268°
2026-04-21 15:25 -16.62961 -49.22179 2470 ft 17 kts 297°
2026-04-21 15:25 -16.62898 -49.22292 2470 ft 17 kts 301°
2026-04-21 15:25 -16.62835 -49.22405 2470 ft 17 kts 299°
2026-04-21 15:26 -16.62773 -49.22517 2470 ft 17 kts 301°
2026-04-21 15:26 -16.62710 -49.22630 2470 ft 17 kts 300°
2026-04-21 15:26 -16.62648 -49.22742 2470 ft 18 kts 300°
2026-04-21 15:26 -16.62588 -49.22847 2470 ft 11 kts 299°
2026-04-21 15:27 -16.62591 -49.22920 2470 ft 11 kts 228°
2026-04-21 15:27 -16.62679 -49.22973 2470 ft 16 kts 186°
2026-04-21 15:27 -16.62771 -49.22861 2470 ft 40 kts 120°
2026-04-21 15:27 -16.63041 -49.22378 2470 ft 111 kts 121°
2026-04-21 15:28 -16.63530 -49.21508 2484 ft 164 kts 118°
2026-04-21 15:28 -16.64135 -49.20443 2859 ft 176 kts 118°
2026-04-21 15:28 -16.64763 -49.19348 3374 ft 178 kts 118°
2026-04-21 15:28 -16.65414 -49.18188 3640 ft 191 kts 118°
2026-04-21 15:29 -16.66107 -49.16947 3886 ft 207 kts 118°
2026-04-21 15:29 -16.67023 -49.15674 4081 ft 231 kts 143°
2026-04-21 15:29 -16.68534 -49.15023 4478 ft 247 kts 171°
2026-04-21 15:29 -16.70299 -49.14830 4893 ft 262 kts 173°
2026-04-21 15:30 -16.72188 -49.14634 5307 ft 278 kts 173°
2026-04-21 15:30 -16.74111 -49.14430 5968 ft 283 kts 173°
2026-04-21 15:30 -16.76067 -49.14222 6740 ft 284 kts 173°
2026-04-21 15:30 -16.78041 -49.14009 7478 ft 287 kts 173°
2026-04-21 15:31 -16.80048 -49.13792 8213 ft 291 kts 173°
2026-04-21 15:31 -16.82067 -49.13574 8954 ft 295 kts 174°
2026-04-21 15:31 -16.84103 -49.13353 9713 ft 297 kts 174°
2026-04-21 15:31 -16.86178 -49.13131 10467 ft 300 kts 174°
2026-04-21 15:32 -16.88298 -49.12906 10916 ft 314 kts 174°
2026-04-21 15:32 -16.90530 -49.12668 11247 ft 331 kts 174°
2026-04-21 15:32 -16.92889 -49.12413 11746 ft 342 kts 173°
2026-04-21 15:32 -16.95244 -49.12161 12441 ft 344 kts 173°
2026-04-21 15:33 -16.97631 -49.11903 13134 ft 346 kts 173°
2026-04-21 15:33 -17.00034 -49.11644 13782 ft 349 kts 173°
2026-04-21 15:33 -17.02456 -49.11382 14418 ft 351 kts 173°
2026-04-21 15:33 -17.04892 -49.11119 15047 ft 353 kts 173°
2026-04-21 15:34 -17.07343 -49.10854 15636 ft 355 kts 173°
2026-04-21 15:34 -17.09810 -49.10586 16232 ft 357 kts 173°
2026-04-21 15:34 -17.12288 -49.10318 16813 ft 359 kts 173°
2026-04-21 15:34 -17.14779 -49.10050 17361 ft 361 kts 173°
2026-04-21 15:35 -17.17285 -49.09779 17934 ft 363 kts 173°
2026-04-21 15:35 -17.19804 -49.09506 18490 ft 365 kts 174°
2026-04-21 15:35 -17.22337 -49.09232 19044 ft 367 kts 174°
2026-04-21 15:35 -17.24885 -49.08956 19590 ft 369 kts 174°
2026-04-21 15:36 -17.27446 -49.08679 20145 ft 371 kts 174°
2026-04-21 15:36 -17.30022 -49.08443 20681 ft 373 kts 176°
2026-04-21 15:36 -17.32624 -49.08347 21204 ft 375 kts 178°
2026-04-21 15:36 -17.35243 -49.08286 21719 ft 377 kts 179°
2026-04-21 15:37 -17.37878 -49.08227 22225 ft 380 kts 179°
2026-04-21 15:37 -17.40530 -49.08168 22720 ft 382 kts 179°
2026-04-21 15:37 -17.43201 -49.08110 23174 ft 385 kts 179°
2026-04-21 15:37 -17.45896 -49.08050 23607 ft 389 kts 178°
2026-04-21 15:38 -17.48613 -49.07987 24029 ft 392 kts 178°
2026-04-21 15:38 -17.51354 -49.07923 24433 ft 395 kts 178°
2026-04-21 15:38 -17.54118 -49.07858 24833 ft 399 kts 178°
2026-04-21 15:38 -17.56901 -49.07793 25241 ft 401 kts 178°
2026-04-21 15:39 -17.59702 -49.07727 25621 ft 404 kts 178°
2026-04-21 15:39 -17.62527 -49.07660 25986 ft 407 kts 178°
2026-04-21 15:39 -17.65371 -49.07593 26346 ft 410 kts 178°
2026-04-21 15:39 -17.68239 -49.07525 26687 ft 413 kts 178°
2026-04-21 15:40 -17.71129 -49.07457 27037 ft 416 kts 178°
2026-04-21 15:40 -17.74036 -49.07387 27364 ft 419 kts 178°
2026-04-21 15:40 -17.76968 -49.07318 27669 ft 422 kts 178°
2026-04-21 15:40 -17.79921 -49.07247 27983 ft 425 kts 178°
2026-04-21 15:41 -17.82894 -49.07177 28292 ft 428 kts 178°
2026-04-21 15:41 -17.85885 -49.07107 28599 ft 431 kts 178°
2026-04-21 15:41 -17.88894 -49.07035 28910 ft 433 kts 178°
2026-04-21 15:41 -17.91923 -49.06963 29216 ft 436 kts 178°
2026-04-21 15:42 -17.94969 -49.06890 29530 ft 438 kts 178°
2026-04-21 15:42 -17.98023 -49.06817 29934 ft 438 kts 178°
2026-04-21 15:42 -18.01070 -49.06745 30379 ft 437 kts 178°
2026-04-21 15:42 -18.04110 -49.06673 30819 ft 436 kts 178°
2026-04-21 15:43 -18.07142 -49.06601 31256 ft 435 kts 178°
2026-04-21 15:43 -18.10165 -49.06529 31677 ft 434 kts 178°
2026-04-21 15:43 -18.13181 -49.06457 32102 ft 433 kts 178°
2026-04-21 15:43 -18.16193 -49.06385 32489 ft 432 kts 178°
2026-04-21 15:44 -18.19204 -49.06313 32828 ft 433 kts 178°
2026-04-21 15:44 -18.22224 -49.06242 33146 ft 434 kts 179°
2026-04-21 15:44 -18.25254 -49.06171 33455 ft 436 kts 179°
2026-04-21 15:44 -18.28289 -49.06099 33780 ft 436 kts 179°
2026-04-21 15:45 -18.31327 -49.06028 34073 ft 437 kts 179°
2026-04-21 15:45 -18.34374 -49.05956 34093 ft 437 kts 179°
2026-04-21 15:45 -18.40463 -49.05812 34104 ft 437 kts 179°
2026-04-21 15:46 -18.46544 -49.05667 34105 ft 437 kts 179°
2026-04-21 15:46 -18.52623 -49.05521 34105 ft 437 kts 179°
2026-04-21 15:47 -18.58708 -49.05376 34104 ft 437 kts 179°
2026-04-21 15:47 -18.64792 -49.05232 34100 ft 437 kts 179°
2026-04-21 15:48 -18.70871 -49.05087 34103 ft 436 kts 179°
2026-04-21 15:48 -18.76944 -49.04943 34104 ft 436 kts 179°
2026-04-21 15:49 -18.83002 -49.04798 34101 ft 435 kts 179°
2026-04-21 15:49 -18.89053 -49.04652 34099 ft 434 kts 179°
2026-04-21 15:50 -18.95098 -49.04507 34099 ft 434 kts 179°
2026-04-21 15:50 -19.01154 -49.04362 34098 ft 435 kts 179°
2026-04-21 15:51 -19.07209 -49.04216 34101 ft 435 kts 179°
2026-04-21 15:51 -19.13258 -49.04072 34098 ft 434 kts 179°
2026-04-21 15:52 -19.19299 -49.03928 34099 ft 433 kts 179°
2026-04-21 15:52 -19.25332 -49.03783 34097 ft 432 kts 179°
2026-04-21 15:53 -19.31351 -49.03638 34097 ft 432 kts 179°
2026-04-21 15:53 -19.37371 -49.03492 34095 ft 432 kts 179°
2026-04-21 15:54 -19.43384 -49.03347 34095 ft 431 kts 179°
2026-04-21 15:54 -19.49398 -49.03202 34092 ft 432 kts 179°
2026-04-21 15:55 -19.55414 -49.03058 34092 ft 432 kts 179°
2026-04-21 15:55 -19.61426 -49.02913 34090 ft 431 kts 179°
2026-04-21 15:56 -19.67432 -49.02768 34089 ft 431 kts 179°
2026-04-21 15:56 -19.73433 -49.02623 34088 ft 430 kts 179°
2026-04-21 15:57 -19.79423 -49.02477 34088 ft 430 kts 179°
2026-04-21 15:57 -19.85404 -49.02333 34084 ft 430 kts 179°
2026-04-21 15:58 -19.91383 -49.02188 34080 ft 429 kts 179°
2026-04-21 15:58 -19.97357 -49.02043 34078 ft 429 kts 179°
2026-04-21 15:59 -20.03338 -49.01898 34077 ft 429 kts 180°
2026-04-21 15:59 -20.09314 -49.01753 34073 ft 429 kts 180°
2026-04-21 16:00 -20.15288 -49.01608 34071 ft 429 kts 180°
2026-04-21 16:00 -20.21270 -49.01463 34070 ft 429 kts 180°
2026-04-21 16:01 -20.25299 -49.01365 34068 ft 429 kts 180°
2026-04-21 16:01 -20.31259 -49.01219 34068 ft 428 kts 180°
2026-04-21 16:02 -20.37217 -49.01074 34070 ft 428 kts 180°
2026-04-21 16:02 -20.42377 -49.00948 34074 ft 427 kts 180°
2026-04-21 16:03 -20.47579 -49.00821 34081 ft 427 kts 180°
2026-04-21 16:03 -20.53526 -49.00677 34083 ft 428 kts 180°
2026-04-21 16:04 -20.59487 -49.00531 34082 ft 428 kts 180°
2026-04-21 16:04 -20.65440 -49.00384 34084 ft 427 kts 180°
2026-04-21 16:05 -20.71391 -49.00239 34080 ft 427 kts 180°
2026-04-21 16:05 -20.77346 -49.00094 34085 ft 427 kts 180°
2026-04-21 16:06 -20.83297 -48.99948 34080 ft 428 kts 180°
2026-04-21 16:06 -20.89256 -48.99801 34082 ft 428 kts 180°
2026-04-21 16:07 -20.95214 -48.99656 34085 ft 428 kts 180°
2026-04-21 16:07 -21.01164 -48.99507 34088 ft 427 kts 180°
2026-04-21 16:08 -21.10041 -48.99289 34085 ft 427 kts 181°
2026-04-21 16:09 -21.15996 -48.99144 34083 ft 426 kts 181°
2026-04-21 16:09 -21.21944 -48.98997 34079 ft 426 kts 181°
2026-04-21 16:10 -21.27882 -48.98851 34078 ft 427 kts 180°
2026-04-21 16:10 -21.33830 -48.98702 34077 ft 427 kts 181°
2026-04-21 16:11 -21.39777 -48.98553 34075 ft 427 kts 181°
2026-04-21 16:11 -21.45731 -48.98407 34076 ft 428 kts 181°
2026-04-21 16:12 -21.50701 -48.98283 34076 ft 428 kts 181°
2026-04-21 16:12 -21.57658 -48.98022 34069 ft 429 kts 175°
2026-04-21 16:13 -21.63471 -48.96421 34080 ft 436 kts 160°
2026-04-21 16:13 -21.68717 -48.93101 34086 ft 442 kts 144°
2026-04-21 16:14 -21.73015 -48.88330 33743 ft 447 kts 132°
2026-04-21 16:14 -21.74963 -48.85739 33452 ft 446 kts 131°
2026-04-21 16:14 -21.76895 -48.83144 33152 ft 445 kts 131°
2026-04-21 16:14 -21.78838 -48.80548 32743 ft 444 kts 131°
2026-04-21 16:15 -21.80780 -48.77961 32199 ft 446 kts 131°
2026-04-21 16:15 -21.82722 -48.75388 31575 ft 446 kts 131°
2026-04-21 16:15 -21.84691 -48.72784 30922 ft 446 kts 131°
2026-04-21 16:15 -21.86631 -48.70219 30274 ft 447 kts 130°
2026-04-21 16:16 -21.88609 -48.67602 29592 ft 448 kts 130°
2026-04-21 16:16 -21.90556 -48.65028 28986 ft 446 kts 130°
2026-04-21 16:16 -21.92507 -48.62442 28536 ft 442 kts 130°
2026-04-21 16:16 -21.94443 -48.59874 28108 ft 438 kts 130°
2026-04-21 16:17 -21.96338 -48.57359 27675 ft 434 kts 130°
2026-04-21 16:17 -21.98215 -48.54867 27250 ft 430 kts 130°
2026-04-21 16:17 -22.00111 -48.52350 26817 ft 426 kts 130°
2026-04-21 16:17 -22.01960 -48.49898 26391 ft 422 kts 130°
2026-04-21 16:18 -22.03799 -48.47456 25975 ft 418 kts 130°
2026-04-21 16:18 -22.05629 -48.45029 25557 ft 415 kts 130°
2026-04-21 16:18 -22.07444 -48.42617 25126 ft 411 kts 130°
2026-04-21 16:18 -22.09231 -48.40243 24696 ft 408 kts 130°
2026-04-21 16:19 -22.11009 -48.37884 24285 ft 405 kts 131°
2026-04-21 16:19 -22.12784 -48.35541 23865 ft 402 kts 131°
2026-04-21 16:19 -22.14557 -48.33191 23434 ft 399 kts 130°
2026-04-21 16:19 -22.15733 -48.31623 23143 ft 397 kts 130°
2026-04-21 16:20 -22.17454 -48.29328 22728 ft 394 kts 130°
2026-04-21 16:20 -22.19197 -48.27000 22297 ft 391 kts 130°
2026-04-21 16:20 -22.20888 -48.24741 21875 ft 389 kts 130°
2026-04-21 16:20 -22.22579 -48.22486 21433 ft 388 kts 131°
2026-04-21 16:21 -22.24281 -48.20216 20990 ft 386 kts 130°
2026-04-21 16:21 -22.25966 -48.17968 20543 ft 384 kts 130°
2026-04-21 16:21 -22.27630 -48.15744 20097 ft 383 kts 131°
2026-04-21 16:21 -22.29308 -48.13503 19638 ft 382 kts 131°
2026-04-21 16:22 -22.30961 -48.11295 19196 ft 380 kts 131°
2026-04-21 16:22 -22.32625 -48.09071 18743 ft 378 kts 130°
2026-04-21 16:22 -22.33543 -48.07844 18506 ft 377 kts 131°
2026-04-21 16:22 -22.35188 -48.05642 18078 ft 375 kts 131°
2026-04-21 16:23 -22.36817 -48.03460 17643 ft 373 kts 131°
2026-04-21 16:23 -22.38439 -48.01288 17202 ft 372 kts 131°
2026-04-21 16:23 -22.40059 -47.99118 16747 ft 370 kts 130°
2026-04-21 16:23 -22.41672 -47.96958 16325 ft 367 kts 130°
2026-04-21 16:24 -22.43274 -47.94808 15923 ft 363 kts 130°
2026-04-21 16:24 -22.44853 -47.92691 15528 ft 360 kts 130°
2026-04-21 16:24 -22.46399 -47.90619 15141 ft 357 kts 130°
2026-04-21 16:24 -22.47947 -47.88543 14745 ft 354 kts 130°
2026-04-21 16:25 -22.49494 -47.86488 14345 ft 351 kts 130°
2026-04-21 16:25 -22.51043 -47.84436 13939 ft 348 kts 130°
2026-04-21 16:25 -22.52558 -47.82426 13552 ft 345 kts 129°
2026-04-21 16:25 -22.54067 -47.80421 13165 ft 342 kts 129°
2026-04-21 16:26 -22.55550 -47.78447 12771 ft 339 kts 129°
2026-04-21 16:26 -22.57038 -47.76462 12368 ft 337 kts 129°
2026-04-21 16:26 -22.58497 -47.74516 11955 ft 335 kts 129°
2026-04-21 16:26 -22.59972 -47.72549 11542 ft 334 kts 129°
2026-04-21 16:27 -22.61421 -47.70614 11142 ft 332 kts 129°
2026-04-21 16:27 -22.62872 -47.68677 10742 ft 329 kts 129°
2026-04-21 16:27 -22.64305 -47.66764 10344 ft 327 kts 129°
2026-04-21 16:27 -22.65711 -47.64885 10243 ft 312 kts 129°
2026-04-21 16:28 -22.67046 -47.63099 10178 ft 298 kts 129°
2026-04-21 16:28 -22.68334 -47.61379 10105 ft 297 kts 129°
2026-04-21 16:28 -22.69636 -47.59642 9738 ft 302 kts 129°
2026-04-21 16:28 -22.70919 -47.57818 9379 ft 301 kts 126°
2026-04-21 16:29 -22.72091 -47.55973 9067 ft 296 kts 124°
2026-04-21 16:29 -22.73240 -47.54139 8746 ft 293 kts 124°
2026-04-21 16:29 -22.74378 -47.52319 8415 ft 289 kts 124°
2026-04-21 16:29 -22.75493 -47.50533 8055 ft 287 kts 123°
2026-04-21 16:30 -22.76603 -47.48758 7718 ft 284 kts 123°
2026-04-21 16:30 -22.77715 -47.46979 7400 ft 281 kts 123°
2026-04-21 16:30 -22.78796 -47.45246 7089 ft 278 kts 123°
2026-04-21 16:30 -22.79872 -47.43524 6777 ft 275 kts 123°
2026-04-21 16:31 -22.80940 -47.41811 6463 ft 272 kts 123°
2026-04-21 16:31 -22.81959 -47.40113 6154 ft 270 kts 122°
2026-04-21 16:31 -22.83009 -47.38428 5983 ft 262 kts 123°
2026-04-21 16:31 -22.84038 -47.36879 5972 ft 247 kts 125°
2026-04-21 16:32 -22.85033 -47.35436 5967 ft 233 kts 126°
2026-04-21 16:32 -22.86023 -47.34027 5957 ft 229 kts 126°
2026-04-21 16:32 -22.86972 -47.32684 5918 ft 216 kts 125°
2026-04-21 16:32 -22.87880 -47.31408 5725 ft 213 kts 126°
2026-04-21 16:33 -22.88749 -47.30192 5564 ft 198 kts 126°
2026-04-21 16:33 -22.89573 -47.29044 5297 ft 183 kts 125°
2026-04-21 16:33 -22.90310 -47.28017 5045 ft 167 kts 126°
2026-04-21 16:33 -22.90995 -47.27062 4795 ft 153 kts 126°
2026-04-21 16:34 -22.91633 -47.26171 4586 ft 148 kts 126°
2026-04-21 16:34 -22.92271 -47.25281 4403 ft 148 kts 125°
2026-04-21 16:34 -22.92898 -47.24406 4226 ft 147 kts 124°
2026-04-21 16:34 -22.93526 -47.23531 4055 ft 147 kts 125°
2026-04-21 16:35 -22.94155 -47.22655 3887 ft 147 kts 124°
2026-04-21 16:35 -22.94778 -47.21785 3703 ft 146 kts 125°
2026-04-21 16:35 -22.95407 -47.20907 3518 ft 146 kts 123°
2026-04-21 16:35 -22.96025 -47.20042 3334 ft 146 kts 125°
2026-04-21 16:36 -22.96648 -47.19173 3147 ft 145 kts 125°
2026-04-21 16:36 -22.97267 -47.18310 2966 ft 145 kts 125°
2026-04-21 16:36 -22.97884 -47.17448 2779 ft 145 kts 126°
2026-04-21 16:36 -22.98507 -47.16575 2581 ft 144 kts 125°
2026-04-21 16:37 -22.99119 -47.15720 2411 ft 143 kts 126°
2026-04-21 16:37 -22.99724 -47.14877 2242 ft 139 kts 124°
2026-04-21 16:37 -23.00281 -47.14090 2179 ft 114 kts 127°
2026-04-21 16:37 -23.00674 -47.13542 2180 ft 77 kts 128°
2026-04-21 16:38 -23.00979 -47.13116 2181 ft 57 kts 128°
2026-04-21 16:38 -23.01169 -47.12888 2181 ft 36 kts 147°
2026-04-21 16:38 -23.01319 -47.12808 2181 ft 16 kts 153°
2026-04-21 16:38 -23.01397 -47.12833 2181 ft 15 kts 281°
2026-04-21 16:39 -23.01340 -47.12929 2181 ft 15 kts 307°
2026-04-21 16:39 -23.01274 -47.13022 2181 ft 15 kts 308°
2026-04-21 16:39 -23.01205 -47.13117 2181 ft 16 kts 308°
2026-04-21 16:39 -23.01135 -47.13214 2181 ft 16 kts 308°
2026-04-21 16:40 -23.01066 -47.13311 2181 ft 16 kts 307°
2026-04-21 16:40 -23.00995 -47.13410 2180 ft 16 kts 308°
2026-04-21 16:40 -23.00922 -47.13508 2180 ft 16 kts 309°
2026-04-21 16:40 -23.00855 -47.13609 2180 ft 16 kts 307°
2026-04-21 16:41 -23.00807 -47.13677 2180 ft 16 kts 308°
2026-04-21 16:41 -23.00716 -47.13802 2180 ft 13 kts 306°
2026-04-21 16:41 -23.00655 -47.13887 2180 ft 14 kts 310°
2026-04-21 16:41 -23.00591 -47.13976 2180 ft 15 kts 306°
2026-04-21 16:42 -23.00524 -47.14068 2179 ft 16 kts 309°
2026-04-21 16:42 -23.00455 -47.14165 2179 ft 16 kts 307°
2026-04-21 16:42 -23.00381 -47.14266 2179 ft 17 kts 306°
2026-04-21 16:42 -23.00308 -47.14370 2179 ft 17 kts 309°
2026-04-21 16:43 -23.00230 -47.14478 2179 ft 18 kts 306°
2026-04-21 16:43 -23.00194 -47.14567 2179 ft 10 kts 233°
2026-04-21 16:43 -23.00255 -47.14624 2179 ft 12 kts 221°
2026-04-21 16:43 -23.00327 -47.14676 2179 ft 12 kts 217°
2026-04-21 16:44 -23.00394 -47.14737 2179 ft 9 kts 219°
2026-04-21 16:44 -23.00435 -47.14773 2179 ft 5 kts 220°
2026-04-21 16:44 -23.00451 -47.14788 2179 ft 0 kts 219°
2026-04-21 16:44 -23.00456 -47.14793 2179 ft 0 kts 219°